Indian River Bay Dewey Beach DE USA current weather conditions

sailwx.info

Wind from 009 at 21 knots gusting 25

Air temperature 7.1° C
Dewpoint 6.5° C

Last reported at 2019-Nov-17 22:05 UTC.
Time now 2019-Nov-17 22:34 UTC

Location: N 38°38' W 075°04'.
View on Google Maps.

See reports from other nearby stations

  
Tides and Currents Weather Stations Pressure Air Temp Water Temp Dewpoint Dewpoint Depression Visibility Wind Speed Wind Dir Waves Ship Positions
date/time (UTC)wind fromknots sea level pressurealtimeterstation pressurevisibilityair tempwater tempwave heightnotes
2019-Nov-17 22:05 009 21 gusting 25 7.1
2019-Nov-17 22:00 011 21 gusting 25 7.3
2019-Nov-17 21:55 011 21 gusting 24 7.4
2019-Nov-17 21:50 011 21 gusting 24 7.4
2019-Nov-17 21:45 012 20 gusting 25 7.4
2019-Nov-17 21:40 011 20 gusting 26 7.4
2019-Nov-17 21:35 012 21 gusting 25 7.3
2019-Nov-17 21:30 011 21 gusting 27 7.3
2019-Nov-17 21:25 010 21 gusting 25 7.4
2019-Nov-17 21:20 011 21 gusting 25 7.4
2019-Nov-17 21:15 012 20 gusting 25 7.4
2019-Nov-17 21:10 011 21 gusting 24 7.4
2019-Nov-17 21:05 012 21 gusting 24 7.4
2019-Nov-17 21:00 011 21 gusting 24 7.4
2019-Nov-17 20:55 011 21 gusting 26 7.4
2019-Nov-17 20:50 011 20 gusting 25 7.5
2019-Nov-17 20:45 010 20 gusting 24 7.5
2019-Nov-17 20:40 010 21 gusting 25 7.5
2019-Nov-17 20:35 008 18 gusting 23 7.6
2019-Nov-17 20:30 012 21 gusting 25 7.6
2019-Nov-17 20:25 011 20 gusting 24 7.7
2019-Nov-17 20:20 008 19 gusting 23 7.6
2019-Nov-17 20:15 010 20 gusting 23 7.6
2019-Nov-17 20:10 012 19 gusting 23 7.6
2019-Nov-17 20:05 011 19 gusting 23 7.6
2019-Nov-17 20:00 012 20 gusting 23 7.5
2019-Nov-17 19:55 011 21 gusting 25 7.5
2019-Nov-17 19:50 010 20 gusting 25 7.5
2019-Nov-17 19:45 010 21 gusting 25 7.5
2019-Nov-17 19:40 010 21 gusting 25 7.5
2019-Nov-17 19:35 011 20 gusting 25 7.5
2019-Nov-17 19:30 010 20 gusting 24 7.5
2019-Nov-17 19:25 011 21 gusting 26 7.4
2019-Nov-17 19:20 010 21 gusting 24 7.4
2019-Nov-17 19:15 006 19 gusting 25 7.3
2019-Nov-17 19:10 007 19 gusting 24 7.2
2019-Nov-17 19:05 005 19 gusting 24 7.1
2019-Nov-17 19:00 005 19 gusting 24 7.1
2019-Nov-17 18:55 005 18 gusting 23 7.1
2019-Nov-17 18:50 005 19 gusting 25 7.1
2019-Nov-17 18:45 007 19 gusting 26 7.1
2019-Nov-17 18:40 008 19 gusting 23 7.2
2019-Nov-17 18:35 007 19 gusting 24 7.1
2019-Nov-17 18:30 007 19 gusting 23 7.0
2019-Nov-17 18:25 007 19 gusting 23 6.9
2019-Nov-17 18:20 005 18 gusting 22 7.1
2019-Nov-17 18:15 005 18 gusting 24 7.0
2019-Nov-17 18:10 007 19 gusting 24 6.9
2019-Nov-17 18:05 005 18 gusting 22 7.1
2019-Nov-17 18:00 004 18 gusting 23 7.1
2019-Nov-17 17:55 003 17 gusting 21 7.1
2019-Nov-17 17:50 005 17 gusting 22 7.2
2019-Nov-17 17:45 010 18 gusting 22 7.2
2019-Nov-17 17:40 005 17 gusting 22 7.0
2019-Nov-17 17:35 007 17 gusting 21 7.1
2019-Nov-17 17:30 005 17 gusting 22 7.0
2019-Nov-17 17:25 008 20 gusting 26 7.0
2019-Nov-17 17:20 005 19 gusting 22 6.9
2019-Nov-17 17:15 004 18 gusting 22 6.9
2019-Nov-17 17:10 008 18 gusting 23 6.9
2019-Nov-17 17:05 007 19 gusting 24 6.8
2019-Nov-17 17:00 005 19 gusting 23 6.8
2019-Nov-17 16:55 007 19 gusting 24 6.7
2019-Nov-17 16:50 008 19 gusting 23 6.6
2019-Nov-17 16:45 005 19 gusting 23 6.5
2019-Nov-17 16:40 004 18 gusting 24 6.5
2019-Nov-17 16:35 004 18 gusting 22 6.3
2019-Nov-17 16:30 006 18 gusting 22 6.3
2019-Nov-17 16:25 004 19 gusting 23 6.1
2019-Nov-17 16:20 005 19 gusting 23 6.1
2019-Nov-17 16:15 006 18 gusting 23 6.3
2019-Nov-17 16:10 006 18 gusting 23 6.2
2019-Nov-17 16:05 006 18 gusting 22 6.0
2019-Nov-17 16:00 003 17 gusting 23 6.1
2019-Nov-17 15:55 006 17 gusting 21 6.0
2019-Nov-17 15:50 007 18 gusting 22 6.0
2019-Nov-17 15:45 006 17 gusting 22 5.9
2019-Nov-17 15:40 005 17 gusting 23 5.7
2019-Nov-17 15:35 006 19 gusting 22 5.7
2019-Nov-17 15:30 010 20 gusting 24 5.6
2019-Nov-17 15:25 009 20 gusting 24 5.6
2019-Nov-17 15:20 008 20 gusting 24 5.5
2019-Nov-17 15:15 008 17 gusting 22 5.6
2019-Nov-17 15:10 008 19 gusting 23 5.4
2019-Nov-17 15:05 009 20 gusting 24 5.3
2019-Nov-17 15:00 005 18 gusting 22 5.2
2019-Nov-17 14:55 006 19 gusting 24 5.2
2019-Nov-17 14:50 002 16 gusting 19 5.0
2019-Nov-17 14:45 359 16 gusting 23 4.6
2019-Nov-17 14:40 003 17 gusting 21 4.4
2019-Nov-17 14:35 002 17 gusting 22 4.4
2019-Nov-17 14:30 360 17 gusting 24 4.2
2019-Nov-17 14:25 360 16 gusting 21 4.0
2019-Nov-17 14:20 354 14 gusting 22 3.9
2019-Nov-17 14:15 354 13 gusting 20 4.0
2019-Nov-17 14:10 358 15 gusting 20 4.1
2019-Nov-17 14:05 001 15 gusting 20 4.3
2019-Nov-17 14:00 002 18 gusting 23 4.2
2019-Nov-17 13:55 001 18 gusting 25 4.2
2019-Nov-17 13:50 359 17 gusting 22 4.2
2019-Nov-17 13:45 355 16 gusting 21 4.0
2019-Nov-17 13:40 356 14 gusting 20 4.2
2019-Nov-17 13:35 001 17 gusting 23 4.6
2019-Nov-17 13:30 006 20 gusting 27 4.7
2019-Nov-17 13:25 006 21 gusting 26 4.7
2019-Nov-17 13:20 008 22 gusting 28 4.7
2019-Nov-17 13:15 008 22 gusting 28 4.6
2019-Nov-17 13:10 005 22 gusting 26 4.6
2019-Nov-17 13:05 008 22 gusting 26 4.6
2019-Nov-17 13:00 007 20 gusting 25 4.8
2019-Nov-17 12:55 007 21 gusting 27 4.8
2019-Nov-17 12:50 004 20 gusting 27 4.7
2019-Nov-17 12:45 006 21 gusting 27 4.7
2019-Nov-17 12:40 004 20 gusting 25 4.6
2019-Nov-17 12:35 4.3
2019-Nov-17 12:30 001 18 gusting 25 4.2
2019-Nov-17 12:25 002 20 gusting 26 4.4
2019-Nov-17 12:20 003 20 gusting 25 4.2
2019-Nov-17 12:15 002 20 gusting 25 4.0
2019-Nov-17 12:10 359 19 gusting 23 4.1
2019-Nov-17 12:05 4.1
2019-Nov-17 12:00 357 17 gusting 26 3.9
2019-Nov-17 11:55 360 19 gusting 26 3.9
2019-Nov-17 11:50 359 18 gusting 23 4.1
2019-Nov-17 11:45 358 19 gusting 24 4.0
2019-Nov-17 11:40 358 18 gusting 25 4.1
2019-Nov-17 11:35 359 19 gusting 24 4.1
2019-Nov-17 11:30 358 19 gusting 25 4.1
2019-Nov-17 11:25 359 19 gusting 23 4.2
2019-Nov-17 11:20 356 17 gusting 23 4.4
2019-Nov-17 11:15 357 16 gusting 21 4.5
2019-Nov-17 11:10 357 17 gusting 22 4.6
2019-Nov-17 11:05 357 17 gusting 23 4.7
2019-Nov-17 11:00 358 17 gusting 24 4.6
2019-Nov-17 10:55 357 16 gusting 21 4.8
2019-Nov-17 10:50 357 15 gusting 22 4.7
2019-Nov-17 10:45 349 13 gusting 21 4.8
2019-Nov-17 10:40 359 16 gusting 21 5.0
2019-Nov-17 10:35 354 15 gusting 22 5.0
2019-Nov-17 10:30 354 16 gusting 22 5.1
2019-Nov-17 10:25 001 16 gusting 22 5.4
2019-Nov-17 10:20 357 15 gusting 22 5.1
2019-Nov-17 10:15 359 15 gusting 19 5.3
2019-Nov-17 10:10 358 15 gusting 21 5.6
2019-Nov-17 10:05 010 17 gusting 24 7.1
2019-Nov-17 10:00 032 19 gusting 25 8.5
2019-Nov-17 09:55 030 20 gusting 25 8.6
2019-Nov-17 09:50 032 19 gusting 25 8.6
2019-Nov-17 09:45 033 21 gusting 26 8.6
2019-Nov-17 09:40 034 21 gusting 26 8.7
2019-Nov-17 09:35 035 20 gusting 26 8.7
2019-Nov-17 09:30 039 21 gusting 26 8.8
2019-Nov-17 09:25 042 20 gusting 25 8.6
2019-Nov-17 09:20 037 22 gusting 28 8.6
2019-Nov-17 09:15 036 21 gusting 27 8.5
2019-Nov-17 09:10 031 20 gusting 26 8.7
2019-Nov-17 09:05 040 21 gusting 26 8.6
2019-Nov-17 09:00 040 21 gusting 26 8.5
2019-Nov-17 08:55 039 23 gusting 27 8.5
2019-Nov-17 08:50 040 23 gusting 28 8.6
2019-Nov-17 08:45 034 20 gusting 25 8.4
2019-Nov-17 08:40 036 21 gusting 26 8.4
2019-Nov-17 08:35 039 23 gusting 30 8.5
2019-Nov-17 08:30 042 23 gusting 27 8.6
2019-Nov-17 08:25 045 23 gusting 27 8.5
2019-Nov-17 08:20 036 22 gusting 29 8.5
2019-Nov-17 08:15 035 22 gusting 27 8.3
2019-Nov-17 08:10 035 21 gusting 26 8.4
2019-Nov-17 08:05 040 23 gusting 27 8.3
2019-Nov-17 08:00 039 22 gusting 26 8.4
2019-Nov-17 07:55 038 22 gusting 27 8.4
2019-Nov-17 07:50 042 24 gusting 29 8.6
2019-Nov-17 07:45 042 20 gusting 24 8.6
2019-Nov-17 07:40 038 21 gusting 28 8.2
2019-Nov-17 07:35 036 22 gusting 28 8.2
2019-Nov-17 07:30 038 22 gusting 27 8.4
2019-Nov-17 07:25 038 22 gusting 28 8.4
2019-Nov-17 07:20 032 19 gusting 24 8.2
2019-Nov-17 07:15 038 22 gusting 29 8.3
2019-Nov-17 07:10 036 22 gusting 28 8.3
2019-Nov-17 07:05 042 23 gusting 28 8.5
2019-Nov-17 07:00 045 24 gusting 27 8.5
2019-Nov-17 06:55 045 22 gusting 30 8.5
2019-Nov-17 06:50 046 24 gusting 28 8.6
2019-Nov-17 06:45 046 21 gusting 26 8.3
2019-Nov-17 06:40 045 24 gusting 28 8.2
2019-Nov-17 06:35 042 24 gusting 30 8.2
2019-Nov-17 06:30 043 23 gusting 28 8.2
2019-Nov-17 06:25 044 21 gusting 26 8.1
2019-Nov-17 06:20 049 23 gusting 28 8.3
2019-Nov-17 06:15 047 23 gusting 28 8.4
2019-Nov-17 06:10 041 22 gusting 28 8.2
2019-Nov-17 06:05 043 23 gusting 28 8.1
2019-Nov-17 06:00 045 24 gusting 30 8.1
2019-Nov-17 05:55 043 23 gusting 28 7.9
2019-Nov-17 05:50 045 24 gusting 28 8.0
2019-Nov-17 05:45 050 24 gusting 32 8.0
2019-Nov-17 05:40 044 23 gusting 28 8.0
2019-Nov-17 05:35 043 23 gusting 29 7.9
2019-Nov-17 05:30 049 23 gusting 33 8.1
2019-Nov-17 05:25 037 22 gusting 28 8.1
2019-Nov-17 05:20 042 24 gusting 28 8.1
2019-Nov-17 05:15 044 23 gusting 28 7.9
2019-Nov-17 05:10 045 25 gusting 32 8.0
2019-Nov-17 05:05 042 23 gusting 30 8.0
2019-Nov-17 05:00 038 24 gusting 30 7.9
2019-Nov-17 04:55 038 25 gusting 31 8.0
2019-Nov-17 04:50 035 23 gusting 29 7.9
2019-Nov-17 04:45 044 23 gusting 28 8.0
2019-Nov-17 04:40 042 24 gusting 29 8.2
2019-Nov-17 04:35 043 22 gusting 30 8.1
2019-Nov-17 04:30 040 25 gusting 30 8.1
2019-Nov-17 04:25 044 25 gusting 32 8.2
2019-Nov-17 04:20 039 23 gusting 30 8.1
2019-Nov-17 04:15 039 23 gusting 29 8.0
2019-Nov-17 04:10 037 22 gusting 28 8.1
2019-Nov-17 04:05 041 24 gusting 29 8.2
2019-Nov-17 04:00 045 23 gusting 30 8.2
2019-Nov-17 03:55 040 23 gusting 28 8.1
2019-Nov-17 03:50 042 25 gusting 31 8.2
2019-Nov-17 03:45 041 25 gusting 32 8.0
2019-Nov-17 03:40 036 22 gusting 28 8.0
2019-Nov-17 03:35 043 24 gusting 30 8.0
2019-Nov-17 03:30 047 24 gusting 29 8.1
2019-Nov-17 03:25 044 23 gusting 29 8.1
2019-Nov-17 03:20 043 25 gusting 31 8.1
2019-Nov-17 03:15 047 24 gusting 31 8.3
2019-Nov-17 03:10 042 23 gusting 28 8.2
2019-Nov-17 03:05 046 26 gusting 32 8.2
2019-Nov-17 03:00 046 24 gusting 32 8.2
2019-Nov-17 02:55 042 26 gusting 31 8.3
2019-Nov-17 02:50 043 24 gusting 30 8.1
2019-Nov-17 02:45 043 25 gusting 31 8.2
2019-Nov-17 02:40 041 25 gusting 31 8.1
2019-Nov-17 02:35 040 24 gusting 29 8.1
2019-Nov-17 02:30 039 25 gusting 30 8.1
2019-Nov-17 02:25 037 25 gusting 33 8.0
2019-Nov-17 02:20 036 23 gusting 28 7.9
2019-Nov-17 02:15 036 24 gusting 32 7.7
2019-Nov-17 02:10 036 26 gusting 31 7.8
2019-Nov-17 02:05 037 25 gusting 32 7.8
2019-Nov-17 02:00 035 23 gusting 31 7.8
2019-Nov-17 01:55 036 24 gusting 30 7.8
2019-Nov-17 01:50 037 24 gusting 29 7.6
2019-Nov-17 01:45 038 24 gusting 29 7.7
2019-Nov-17 01:40 034 25 gusting 31 7.6
2019-Nov-17 01:35 034 23 gusting 30 7.7
2019-Nov-17 01:30 032 23 gusting 32 7.5
2019-Nov-17 01:25 031 23 gusting 32 7.5
2019-Nov-17 01:20 033 24 gusting 33 7.6
2019-Nov-17 01:15 033 22 gusting 29 7.5
2019-Nov-17 01:10 034 24 gusting 30 7.6
2019-Nov-17 01:05 033 24 gusting 30 7.5
2019-Nov-17 01:00 033 24 gusting 31 7.4
2019-Nov-17 00:55 034 23 gusting 32 7.7
2019-Nov-17 00:50 036 21 gusting 28 7.7
2019-Nov-17 00:45 036 23 gusting 31 7.7
2019-Nov-17 00:40 034 23 gusting 28 7.8
2019-Nov-17 00:35 036 24 gusting 28 7.8
2019-Nov-17 00:30 037 23 gusting 30 7.7
2019-Nov-17 00:25 038 24 gusting 31 7.7
2019-Nov-17 00:20 036 23 gusting 30 7.6
2019-Nov-17 00:15 032 22 gusting 30 7.8
2019-Nov-17 00:10 039 24 gusting 29 7.8
2019-Nov-17 00:05 042 23 gusting 30 7.7
2019-Nov-17 00:00 043 24 gusting 29 7.7
2019-Nov-16 23:55 033 24 gusting 31 7.5
2019-Nov-16 23:50 036 23 gusting 28 7.4
2019-Nov-16 23:45 046 24 gusting 29 7.5
2019-Nov-16 23:40 041 24 gusting 32 7.5
2019-Nov-16 23:35 037 22 gusting 29 7.4
2019-Nov-16 23:30 037 23 gusting 30 7.2
2019-Nov-16 23:25 031 21 gusting 28 7.2
2019-Nov-16 23:20 034 23 gusting 29 7.4
2019-Nov-16 23:15 035 22 gusting 28 7.2
2019-Nov-16 23:10 036 23 gusting 29 7.4
2019-Nov-16 23:05 036 24 gusting 30 7.3
2019-Nov-16 23:00 045 21 gusting 28 7.6
2019-Nov-16 22:55 041 24 gusting 29 7.5
2019-Nov-16 22:50 037 23 gusting 28 7.3
2019-Nov-16 22:45 035 22 gusting 28 7.1
2019-Nov-16 22:40 032 23 gusting 29 7.1
2019-Nov-16 22:35 028 22 gusting 28 7.0
2019-Nov-16 22:30 023 21 gusting 28 6.9
2019-Nov-16 22:25 031 23 gusting 32 7.0
2019-Nov-16 22:20 032 22 gusting 31 6.9
2019-Nov-16 22:15 026 22 gusting 28 6.8
2019-Nov-16 22:10 029 22 gusting 27 7.0
2019-Nov-16 22:05 030 22 gusting 28 6.9
2019-Nov-16 22:00 031 22 gusting 28 6.9
2019-Nov-16 21:55 029 24 gusting 29 6.9
2019-Nov-16 21:50 029 22 gusting 28 6.9
2019-Nov-16 21:45 032 23 gusting 31 6.9
2019-Nov-16 21:40 029 23 gusting 30 7.0
2019-Nov-16 21:35 035 23 gusting 30 6.9
2019-Nov-16 21:30 026 23 gusting 30 6.9
2019-Nov-16 21:25 031 23 gusting 31 6.9
2019-Nov-16 21:20 029 23 gusting 32 6.9
2019-Nov-16 21:15 033 24 gusting 31 6.8
2019-Nov-16 21:10 032 21 gusting 28 6.7
2019-Nov-16 21:05 033 22 gusting 28 6.9
2019-Nov-16 21:00 033 25 gusting 32 6.9
2019-Nov-16 20:55 030 23 gusting 31 6.9
2019-Nov-16 20:50 027 22 gusting 29 7.0
2019-Nov-16 20:45 030 22 gusting 30 7.0
2019-Nov-16 20:40 031 22 gusting 29 7.0
2019-Nov-16 20:35 028 21 gusting 28 7.1
2019-Nov-16 20:30 029 20 gusting 28 7.1
2019-Nov-16 20:25 030 21 gusting 29 7.2
2019-Nov-16 20:20 029 22 gusting 28 7.2
2019-Nov-16 20:15 026 22 gusting 29 7.0
2019-Nov-16 20:10 027 23 gusting 30 7.0
2019-Nov-16 20:05 029 23 gusting 29 7.0
2019-Nov-16 20:00 032 23 gusting 30 7.1
2019-Nov-16 19:55 027 23 gusting 30 6.9
2019-Nov-16 19:50 033 23 gusting 30 6.9
2019-Nov-16 19:45 030 21 gusting 28 7.0
2019-Nov-16 19:40 029 22 gusting 30 6.9
2019-Nov-16 19:35 032 22 gusting 28 7.0
2019-Nov-16 19:30 029 24 gusting 30 6.9
2019-Nov-16 19:25 028 22 gusting 29 6.9
2019-Nov-16 19:20 032 21 gusting 28 6.9
2019-Nov-16 19:15 031 21 gusting 28 6.7
2019-Nov-16 19:10 029 22 gusting 27 6.9
2019-Nov-16 19:05 032 21 gusting 27 6.9
2019-Nov-16 19:00 029 23 gusting 34 6.8
2019-Nov-16 18:55 034 24 gusting 33 6.8
2019-Nov-16 18:50 033 23 gusting 30 6.9
2019-Nov-16 18:45 026 21 gusting 31 6.8
2019-Nov-16 18:40 032 23 gusting 29 6.8
2019-Nov-16 18:35 029 23 gusting 30 6.7
2019-Nov-16 18:30 032 23 gusting 34 6.9
2019-Nov-16 18:25 027 23 gusting 30 6.8
2019-Nov-16 18:20 028 23 gusting 30 6.9
2019-Nov-16 18:15 036 24 gusting 31 7.0
2019-Nov-16 18:10 036 24 gusting 30 6.9
2019-Nov-16 18:05 029 24 gusting 32 6.9
2019-Nov-16 18:00 033 23 gusting 29 7.0
2019-Nov-16 17:55 031 24 gusting 30 6.9
2019-Nov-16 17:50 033 24 gusting 31 7.0
2019-Nov-16 17:45 028 24 gusting 31 6.9
2019-Nov-16 17:40 033 26 gusting 34 7.0
2019-Nov-16 17:35 036 24 gusting 30 7.0
2019-Nov-16 17:30 032 24 gusting 31 7.1
2019-Nov-16 17:25 034 24 gusting 30 6.9
2019-Nov-16 17:20 031 23 gusting 31 7.0
2019-Nov-16 17:15 033 23 gusting 32 7.0
2019-Nov-16 17:10 037 24 gusting 30 7.1
2019-Nov-16 17:05 030 23 gusting 33 7.1
2019-Nov-16 17:00 035 25 gusting 30 7.0
2019-Nov-16 16:55 031 23 gusting 32 7.0
2019-Nov-16 16:50 031 23 gusting 29 7.1
2019-Nov-16 16:45 029 23 gusting 28 7.1
2019-Nov-16 16:40 028 23 gusting 30 7.0
2019-Nov-16 16:35 032 23 gusting 28 7.0
2019-Nov-16 16:30 030 25 gusting 33 7.1
2019-Nov-16 16:25 028 25 gusting 31 7.0
2019-Nov-16 16:20 033 25 gusting 31 7.1
2019-Nov-16 16:15 027 23 gusting 28 7.3
2019-Nov-16 16:10 033 23 gusting 30 7.2
2019-Nov-16 16:05 034 25 gusting 32 7.1
2019-Nov-16 16:00 026 25 gusting 32 7.0
2019-Nov-16 15:55 029 23 gusting 34 7.2
2019-Nov-16 15:50 027 24 gusting 33 7.1
2019-Nov-16 15:45 035 25 gusting 31 7.2
2019-Nov-16 15:40 029 23 gusting 28 7.2
2019-Nov-16 15:35 031 23 gusting 29 7.3
2019-Nov-16 15:30 025 22 gusting 30 7.3
2019-Nov-16 15:25 026 22 gusting 29 7.2
2019-Nov-16 15:20 028 24 gusting 32 7.1
2019-Nov-16 15:15 027 24 gusting 31 7.1
2019-Nov-16 15:10 027 25 gusting 32 7.0
2019-Nov-16 15:05 026 24 gusting 32 7.0
2019-Nov-16 15:00 021 24 gusting 31 6.9
2019-Nov-16 14:55 015 23 gusting 31 6.7
2019-Nov-16 14:50 019 24 gusting 30 6.5
2019-Nov-16 14:45 016 24 gusting 29 6.6
2019-Nov-16 14:40 017 23 gusting 30 6.4
2019-Nov-16 14:35 017 23 gusting 31 6.4
2019-Nov-16 14:30 011 23 gusting 29 6.2
2019-Nov-16 14:25 014 23 gusting 30 6.4
2019-Nov-16 14:20 016 23 gusting 30 6.6
2019-Nov-16 14:15 017 24 gusting 31 6.4
2019-Nov-16 14:10 007 23 gusting 27 6.1
2019-Nov-16 14:05 010 22 gusting 29 6.2
2019-Nov-16 14:00 005 21 gusting 27 6.1
2019-Nov-16 13:55 007 21 gusting 26 6.1
2019-Nov-16 13:50 007 20 gusting 26 6.1
2019-Nov-16 13:45 005 20 gusting 25 6.1
2019-Nov-16 13:40 007 20 gusting 26 6.0
2019-Nov-16 13:35 007 21 gusting 26 6.0
2019-Nov-16 13:30 006 20 gusting 25 6.1
2019-Nov-16 13:25 008 21 gusting 25 6.1
2019-Nov-16 13:20 008 21 gusting 25 6.0
2019-Nov-16 13:15 012 23 gusting 28 6.1
2019-Nov-16 13:10 008 22 gusting 29 6.1
2019-Nov-16 13:05 009 21 gusting 27 6.1
2019-Nov-16 13:00 008 20 gusting 25 6.0
2019-Nov-16 12:55 004 20 gusting 25 5.9
2019-Nov-16 12:50 005 19 gusting 24 5.8
2019-Nov-16 12:45 005 19 gusting 26 5.8
2019-Nov-16 12:40 009 21 gusting 25 5.8
2019-Nov-16 12:35 003 19 gusting 25 5.7
2019-Nov-16 12:30 002 18 gusting 22 5.6
2019-Nov-16 12:25 006 19 gusting 23 5.7
2019-Nov-16 12:20 007 20 gusting 27 5.6
2019-Nov-16 12:15 007 19 gusting 25 5.5
2019-Nov-16 12:10 004 19 gusting 25 5.5
2019-Nov-16 12:05 003 19 gusting 24 5.3
2019-Nov-16 12:00 005 17 gusting 24 5.5
2019-Nov-16 11:55 003 18 gusting 22 5.3
2019-Nov-16 11:50 003 18 gusting 24 5.3
2019-Nov-16 11:45 5.2
2019-Nov-16 11:40 005 18 gusting 23 5.3
2019-Nov-16 11:35 004 19 gusting 23 5.2
2019-Nov-16 11:30 003 18 gusting 25 5.1
2019-Nov-16 11:25 001 19 gusting 24 5.1
2019-Nov-16 11:20 357 18 gusting 24 5.0
2019-Nov-16 11:15 001 19 gusting 25 5.1
2019-Nov-16 11:10 001 19 gusting 26 5.1
2019-Nov-16 11:05 5.1
2019-Nov-16 11:00 003 19 gusting 25 5.2
2019-Nov-16 10:55 001 17 gusting 23 5.3
2019-Nov-16 10:50 001 20 gusting 25 5.1
2019-Nov-16 10:45 004 20 gusting 26 5.1
2019-Nov-16 10:40 004 19 gusting 25 5.2
2019-Nov-16 10:35 004 19 gusting 25 5.1
2019-Nov-16 10:30 003 19 gusting 26 5.2
2019-Nov-16 10:25 001 17 gusting 23 5.2
2019-Nov-16 10:20 002 19 gusting 26 5.3
2019-Nov-16 10:15 006 19 gusting 25 5.3
2019-Nov-16 10:10 006 21 gusting 28 5.3
2019-Nov-16 10:05 004 20 gusting 25 5.3
2019-Nov-16 10:00 002 20 gusting 25 5.2
2019-Nov-16 09:55 003 19 gusting 24 5.3
2019-Nov-16 09:50 004 21 gusting 26 5.3
2019-Nov-16 09:45 004 21 gusting 26 5.3
2019-Nov-16 09:40 006 22 gusting 27 5.4
2019-Nov-16 09:35 005 22 gusting 27 5.4
2019-Nov-16 09:30 007 22 gusting 27 5.5
2019-Nov-16 09:25 006 23 gusting 28 5.5
2019-Nov-16 09:20 003 22 gusting 26 5.5
2019-Nov-16 09:15 003 22 gusting 28 5.5
2019-Nov-16 09:10 003 22 gusting 28 5.5
2019-Nov-16 09:05 002 21 gusting 28 5.6
2019-Nov-16 09:00 005 23 gusting 29 5.6
2019-Nov-16 08:55 004 22 gusting 29 5.6
2019-Nov-16 08:50 006 23 gusting 29 5.7
2019-Nov-16 08:45 005 22 gusting 28 5.7
2019-Nov-16 08:40 004 22 gusting 28 5.8
2019-Nov-16 08:35 001 20 gusting 27 5.9
2019-Nov-16 08:30 007 22 gusting 27 6.0
2019-Nov-16 08:25 004 21 gusting 27 5.9
2019-Nov-16 08:20 008 21 gusting 27 5.9
2019-Nov-16 08:15 007 22 gusting 28 5.8
2019-Nov-16 08:10 006 23 gusting 28 5.8
2019-Nov-16 08:05 006 22 gusting 26 5.9
2019-Nov-16 08:00 009 21 gusting 25 6.0
2019-Nov-16 07:55 009 21 gusting 26 5.9
2019-Nov-16 07:50 007 20 gusting 27 6.0
2019-Nov-16 07:45 003 19 gusting 25 5.9
2019-Nov-16 07:40 005 19 gusting 25 5.9
2019-Nov-16 07:35 5.8
2019-Nov-16 07:30 003 19 gusting 25 6.0
2019-Nov-16 07:25 004 20 gusting 25 6.1
2019-Nov-16 07:20 007 21 gusting 26 6.2
2019-Nov-16 07:15 005 20 gusting 25 6.3
2019-Nov-16 07:10 006 20 gusting 25 6.4
2019-Nov-16 07:05 005 20 gusting 25 6.5
2019-Nov-16 07:00 006 20 gusting 25 6.7
2019-Nov-16 06:55 007 19 gusting 25 6.8
2019-Nov-16 06:50 009 20 gusting 25 6.9
2019-Nov-16 06:45 002 20 gusting 25 7.0
2019-Nov-16 06:40 005 20 gusting 25 7.2
2019-Nov-16 06:35 007 20 gusting 26 7.3
2019-Nov-16 06:30 003 19 gusting 24 7.5
2019-Nov-16 06:25 003 18 gusting 24 7.6
2019-Nov-16 06:20 358 17 gusting 22 7.8
2019-Nov-16 06:15 002 19 gusting 25 8.0
2019-Nov-16 06:10 358 15 gusting 21 7.9
2019-Nov-16 06:05 360 16 gusting 22 8.2
2019-Nov-16 06:00 356 16 gusting 21 8.2
2019-Nov-16 05:55 356 15 gusting 20 8.3
2019-Nov-16 05:50 357 15 gusting 20 8.4
2019-Nov-16 05:45 359 16 gusting 21 8.5
2019-Nov-16 05:40 360 16 gusting 21 8.7
2019-Nov-16 05:35 357 15 gusting 20 8.8
2019-Nov-16 05:30 355 15 gusting 19 8.9
2019-Nov-16 05:25 354 14 gusting 21 8.9
2019-Nov-16 05:20 352 14 gusting 20 9.0
2019-Nov-16 05:15 352 12 gusting 17 9.1
2019-Nov-16 05:10 354 12 gusting 21 9.1
2019-Nov-16 05:05 348 10 gusting 15 9.1
2019-Nov-16 05:00 346 8 gusting 14 9.1
2019-Nov-16 04:55 345 9 gusting 13 9.2
2019-Nov-16 04:50 348 9 gusting 16 9.2
2019-Nov-16 04:45 345 8 gusting 15 9.2
2019-Nov-16 04:40 345 8 gusting 13 9.2
2019-Nov-16 04:35 339 6 gusting 12 9.2
2019-Nov-16 04:30 339 6 gusting 10 9.2
2019-Nov-16 04:25 337 6 gusting 10 9.2
2019-Nov-16 04:20 332 7 gusting 12 9.2
2019-Nov-16 04:15 341 7 gusting 13 9.0
2019-Nov-16 04:10 334 5 gusting 12 9.1
2019-Nov-16 04:05 338 6 gusting 11 8.9
2019-Nov-16 04:00 330 5 gusting 11 9.0
2019-Nov-16 03:55 335 6 gusting 12 8.9
2019-Nov-16 03:50 336 6 gusting 10 8.8
2019-Nov-16 03:45 337 5 gusting 9 8.3
2019-Nov-16 03:40 327 5 gusting 9 7.5
2019-Nov-16 03:35 323 3 gusting 5 7.2
2019-Nov-16 03:30 316 4 gusting 6 7.1
2019-Nov-16 03:25 317 4 gusting 5 7.0
2019-Nov-16 03:20 311 3 gusting 5 6.7
2019-Nov-16 03:15 306 2 gusting 4 6.6
2019-Nov-16 03:10 308 3 gusting 5 6.4
2019-Nov-16 03:05 300 2 gusting 4 6.5
2019-Nov-16 03:00 307 2 gusting 4 6.5
2019-Nov-16 02:55 309 2 gusting 4 6.4
2019-Nov-16 02:50 307 2 gusting 3 6.4
2019-Nov-16 02:45 306 1 gusting 3 6.3
2019-Nov-16 02:40 302 2 gusting 3 6.3
2019-Nov-16 02:35 305 2 gusting 4 6.3
2019-Nov-16 02:30 310 3 gusting 5 6.4
2019-Nov-16 02:25 310 3 gusting 4 6.2
2019-Nov-16 02:20 308 2 gusting 3 6.2
2019-Nov-16 02:15 305 1 gusting 2 6.3
2019-Nov-16 02:10 299 2 gusting 3 6.3
2019-Nov-16 02:05 298 2 gusting 3 6.2
2019-Nov-16 02:00 291 1 gusting 2 6.2
2019-Nov-16 01:55 295 1 gusting 2 6.2
2019-Nov-16 01:50 292 1 gusting 2 6.1
2019-Nov-16 01:45 294 1 gusting 2 6.2
2019-Nov-16 01:40 301 1 gusting 2 6.2
2019-Nov-16 01:35 305 1 gusting 3 6.3
2019-Nov-16 01:30 311 2 gusting 4 6.3
2019-Nov-16 01:25 305 1 gusting 3 6.3
2019-Nov-16 01:20 302 1 gusting 3 6.5
2019-Nov-16 01:15 312 2 gusting 3 6.6
2019-Nov-16 01:10 310 2 gusting 3 6.6
2019-Nov-16 01:05 308 1 gusting 2 6.7
2019-Nov-16 01:00 313 2 gusting 3 6.7
2019-Nov-16 00:55 306 1 gusting 2 6.7
2019-Nov-16 00:50 293 1 gusting 1 6.8
2019-Nov-16 00:45 287 1 gusting 1 6.8
2019-Nov-16 00:40 297 1 gusting 2 6.8
2019-Nov-16 00:35 288 1 gusting 2 6.9
2019-Nov-16 00:30 286 1 gusting 2 7.0
2019-Nov-16 00:25 287 1 gusting 2 7.0
2019-Nov-16 00:20 293 1 gusting 2 7.1
2019-Nov-16 00:15 283 1 gusting 2 7.2
2019-Nov-16 00:10 283 1 gusting 2 7.1
2019-Nov-16 00:05 279 1 gusting 1 6.9
2019-Nov-16 00:00 278 1 gusting 2 7.1
2019-Nov-15 23:55 292 1 gusting 2 7.4
2019-Nov-15 23:50 301 1 gusting 2 7.5
2019-Nov-15 23:45 303 1 gusting 2 7.7
2019-Nov-15 23:40 316 1 gusting 2 7.8
2019-Nov-15 23:35 315 1 gusting 1 7.9
2019-Nov-15 23:30 317 1 gusting 2 8.0
2019-Nov-15 23:25 321 1 gusting 2 8.0
2019-Nov-15 23:20 319 0 gusting 1 8.0
2019-Nov-15 23:15 324 1 gusting 1 8.1
2019-Nov-15 23:10 316 0 gusting 1 8.1
2019-Nov-15 23:05 320 1 gusting 2 8.0
2019-Nov-15 23:00 333 1 gusting 2 8.0
2019-Nov-15 22:55 329 0 gusting 2 8.1
2019-Nov-15 22:50 330 1 gusting 1 8.1
2019-Nov-15 22:45 325 0 gusting 1 8.2
2019-Nov-15 22:40 328 0 gusting 1 8.2
2019-Nov-15 22:35 334 1 gusting 2 8.3
2019-Nov-15 22:30 320 1 gusting 2 8.2
2019-Nov-15 22:25 325 1 gusting 2 8.2
2019-Nov-15 22:20 336 1 gusting 2 8.2
2019-Nov-15 22:15 336 1 gusting 2 8.2
2019-Nov-15 22:10 329 1 gusting 2 8.1
2019-Nov-15 22:05 321 1 gusting 2 8.1
2019-Nov-15 22:00 321 1 gusting 2 8.1